Погода в Комсомольске

Россия / Калининградская область     54°37′37″N   20°45′20″E
темп.,
°C
ветер,
м/с
пор.,
м/с
влажн.,
%
обл.,
%
осадки,
мм/ч
давл.,
гПа
погр.,
м
19 сентября, вс
вс1923:00+11св5105458 0.0 10161026
02:00+10ссв5957100 0.0 1016627
05:00+9ссв6106758 0.0 1016605
08:00+8ссв697082 0.0 1016558
11:00+11ссв67582 0.0 1016861
14:00+12св675768 0.0 10161072
17:00+12св5861100 0.0 10171108
20:00+11св4963100 0.0 1018854
20 сентября, пн
пн2023:00+10св5863100 0.0 1018782
02:00+7ссв49775 0.0 1019237
05:00+6св498511 0.0 1019237
08:00+8св59703 0.0 1020692
11:00+11ссв686057 0.0 10201037
14:00+11ссв6956100 0.0 10201504
17:00+11св5960100 0.0 10211297
20:00+7всв478065 0.0 1023418
21 сентября, вт
вт2123:00+4с009210 0.0 102310
02:00+5з228827 0.0 102435
05:00+5зсз229027 0.0 102321
08:00+8зсз1277100 0.0 1024104
11:00+11з1366100 0.0 1024672
14:00+13с4551100 0.1 10231477
17:00+12с3560100 0.0 1023925
20:00+9сз1172100 0.0 102310
22 сентября, ср
ср2223:00+10з2273100 0.1 102370
02:00+9зсз127789 0.3 102330
05:00+9сз117698 0.0 102233
08:00+10ююв007382 0.1 102287
11:00+13юз026160 0.0 1022899
14:00+14сз445884 0.2 10211182
17:00+14ссз335777 0.0 1020984
20:00+8вюв2287100 0.0 101911
23 сентября, чт
чт2323:00+10ююв3676100 0.0 1016161
02:00+10ююз388195 0.0 1013210
05:00+11юз4991100 0.0 1009364
08:00+12юз51187100 0.0 1006669
11:00+14юз71181100 0.4 1003895
14:00+13зсз7118052 8.2 10011009
17:00+13зсз71261100 0.3 10011216
20:00+11зсз61370100 0.4 1001627